This demonstration page uses our WeatherBlox Daily Observations layout. Learn more.

Left ArrowRight Arrow

Hourly Observations for March 26, 2017

Temp ( °F °C ) Dew Point ( °F °C ) Humidity (%) Winds ( mph kmh ) Pressure ( in mb ) Visibility ( mi km ) Precip ( " mm )
12:53 am 00:53 Cloudy 67 19.4 51 10.6 57 57 SW 3 6 30.01 1016 10 16 N/A
1:53 am 01:53 Cloudy 62 16.7 56 13.3 80 80 N N/A 30.00 1016 10 16 N/A
2:53 am 02:53 Cloudy with Light Rain 60 15.6 57 13.9 90 90 W 3 6 29.99 1016 10 16 N/A
3:53 am 03:53 Cloudy 61 16.1 57 13.9 87 87 SSW 5 7 29.99 1016 10 16 N/A
4:28 am 04:28 Cloudy 62 16.7 57 13.9 84 84 SW 9 15 30.00 1016 10 16 N/A
4:53 am 04:53 Mostly Cloudy 61 16.1 57 13.9 87 87 SW 5 7 29.98 1015 10 16 N/A
5:53 am 05:53 Mostly Cloudy with Light Rain 60 15.6 56 13.3 86 86 N N/A 29.98 1015 10 16 N/A
6:03 am 06:03 Cloudy with Light Rain 60 15.6 57 13.9 90 90 N N/A 30.00 1016 10 16 N/A
6:44 am 06:44 Cloudy with Light Rain 59 15 57 13.9 93 93 S 5 7 29.97 1015 10 16 N/A
6:53 am 06:53 Cloudy with Light Rain 59 15 57 13.9 93 93 N N/A 29.97 1015 10 16 N/A
7:53 am 07:53 Cloudy with Light Rain 59 15 57 13.9 93 93 S 3 6 29.98 1015 10 16 N/A
8:30 am 08:30 Cloudy with Light Rain 59 15 56 13.3 90 90 S 7 11 30.00 1016 10 16 0.01 0.25
8:53 am 08:53 Cloudy 59 15 56 13.3 90 90 VRB 6 9 29.99 1016 10 16 0.01 0.25
9:53 am 09:53 Cloudy 60 15.6 56 13.3 86 86 VRB 5 7 29.99 1016 10 16 N/A
10:03 am 10:03 Cloudy 60 15.6 56 13.3 86 86 S 7 11 30.00 1016 10 16 N/A
10:47 am 10:47 Cloudy with Rain 59 15 55 13 88 88 SSW 6 9 30.00 1016 2 3 0.02 0.51
10:53 am 10:53 Cloudy with Rain 58 14.4 57 13.9 97 97 VRB 6 9 29.99 1016 2 2 0.04 1.02
10:55 am 10:55 Cloudy with Light Rain 58 14.4 57 13.9 97 97 VRB 3 6 30.00 1016 2 3 N/A
11:04 am 11:04 Cloudy with Light Rain 58 14.4 57 13.9 97 97 S 7 11 30.00 1016 5 8 0.01 0.25
11:35 am 11:35 Cloudy with Light Rain 59 15 58 14.4 96 96 S 6 9 30.00 1016 3 4 0.03 0.76
11:41 am 11:41 Cloudy with Rain 58 14.4 57 13.9 97 97 SW 6 9 30.00 1016 2 3 0.06 1.52
11:44 am 11:44 Cloudy with Heavy Rain 58 14.4 57 13.9 97 97 WSW 5 7 30.00 1016 1 2 0.09 2.29
11:53 am 11:53 Cloudy with Heavy Rain 58 14.4 58 14.4 100 100 VRB 5 7 30.00 1016 1 1 0.18 4.57
11:59 am 11:59 Cloudy with Light Rain 58 14.4 58 14.4 100 100 VRB 5 7 30.00 1016 2 3 0.01 0.25
12:07 pm 12:07 Cloudy with Light Rain 58 14.4 58 14.4 100 100 SSE 5 7 30.00 1016 4 6 0.02 0.51
12:37 pm 12:37 Cloudy with Light Rain 59 15 58 14.4 96 96 VRB 6 9 30.00 1016 10 16 0.04 1.02
12:53 pm 12:53 Cloudy with Light Rain 59 15 57 13.9 93 93 VRB 7 11 29.98 1015 10 16 0.04 1.02
1:00 pm 13:00 Cloudy with Light Rain 58 14.4 57 13.9 97 97 VRB 7 11 29.97 1015 7 11 N/A
1:41 pm 13:41 Cloudy 60 15.6 58 14.4 93 93 VRB 6 9 29.97 1015 10 16 0.01 0.25
1:53 pm 13:53 Cloudy 61 16.1 58 14.4 90 90 SSE 7 11 29.96 1014 10 16 0.01 0.25
2:53 pm 14:53 Mostly Cloudy 65 18.3 57 13.9 76 76 VRB 5 7 29.92 1013 10 16 N/A
3:35 pm 15:35 Mostly Cloudy 66 18.9 56 13.3 70 70 VRB 3 6 29.91 1013 10 16 N/A
3:53 pm 15:53 Partly Cloudy 68 20 56 13.3 65 65 SSW 6 9 29.89 1012 10 16 N/A
4:53 pm 16:53 Cloudy with Light Rain 67 19.4 55 12.8 66 66 SSW 6 9 29.88 1012 10 16 N/A
5:53 pm 17:53 Cloudy with Rain 61 16.1 58 14.4 90 90 WNW 8 13 29.90 1012 3 5 0.03 0.76
6:53 pm 18:53 Cloudy with Light Rain 60 15.6 58 14.4 93 93 W 5 7 29.92 1013 5 8 0.02 0.51
7:53 pm 19:53 Cloudy with Light Rain 59 15 58 14.4 96 96 WNW 3 6 29.93 1014 10 16 0.01 0.25
8:53 pm 20:53 Mostly Cloudy 58 14.4 57 13.9 97 97 SSW 3 6 29.94 1014 10 16 0.01 0.25
9:53 pm 21:53 Mostly Clear 56 13.3 55 12.8 97 97 SSW 3 6 29.96 1015 10 16 N/A
10:53 pm 22:53 Partly Cloudy 55 12.8 54 12.2 96 96 WSW 3 6 29.97 1015 9 14 N/A
11:53 pm 23:53 Clear 55 12.8 54 12.2 96 96 WSW 5 7 29.98 1015 10 16 N/A

Powered by AerisWeather